User: anonymous   Login
Location: Bridgewater Hill Observatory
(43.5992°N, 72.6989°W)
Time: 05:25:32
(UTC-04:00)
Language:

Cosmos 1452 Rocket - Orbit

View from above orbital plane
View from above orbital plane
View from above satellite
View from above satellite

Ground track
Ground track

The orbit data is extracted from the following two-line orbital elements,

1 13992U 83031B   18144.33118522 +.00000022 +00000-0 +16675-4 0  9995
2 13992 074.0529 101.4396 0005167 344.5751 015.5244 14.36118454837494
Epoch (UTC): 24 May 2018 07:56:54
Eccentricity: 0.0005167
inclination: 74.0529°
perigee height: 767 km
apogee height: 775 km
right ascension of ascending node: 101.4396°
argument of perigee: 344.5751°
revolutions per day: 14.36118454
mean anomaly at epoch: 15.5244°
orbit number at epoch: 83749

The dashed part of the orbit path shows where the satellite is in the earth's shadow,  

DLR